Location: Eastview
(35.0756°N, 88.5453°W)
Time: 22:53:50
(UTC+00:00)

Cosmos 1470 Rocket - Pass Details

Date: 22 November 2019
Orbit: 604 x 633 km, 82.5° (Epoch: 06 December)

Event Time Altitude Azimuth Distance (km) Brightness Sun altitude
Rises 23:46:01 0° 353° (N) 2,931 6.9 -12.6°
Reaches altitude 10° 23:48:16 10° 354° (N) 2,018 6.1 -13.0°
Maximum altitude 23:52:45 86° 84° (E) 636 3.5 -13.9°
Drops below altitude 10° 23:57:10 10° 173° (S) 1,991 6.3 -14.8°
Sets 23:59:23 0° 174° (S) 2,889 7.1 -15.2°
